Change the Weather History Date:

Thursday, January 2, 2014

  Actual Average (KLOZ) Record (KLOZ)
Temperature  
Mean Temperature 29 °F 36 °F  
Max Temperature 41 °F 45 °F 67 °F (2000)
Min Temperature 17 °F 27 °F -1 °F (1977)
Degree Days  
Heating Degree Days 36 29  
Month to date heating degree days 58  
Since 1 July heating degree days 1710  
Cooling Degree Days 0 0  
Month to date cooling degree days 0  
Year to date cooling degree days 0  
Moisture  
Dew Point 28 °F    
Average Humidity 85    
Maximum Humidity 100    
Minimum Humidity 64    
Precipitation  
Precipitation 0.13 in 0.12 in 0.98 in (1972)
Month to date precipitation 0.23  
Year to date precipitation 0.23  
Sea Level Pressure  
Sea Level Pressure 29.94 in    
Wind  
Wind Speed 6 mph (NW)    
Max Wind Speed 21 mph    
Max Gust Speed 29 mph    
Visibility 6 miles    
Events Rain , Snow    
T = Trace of Precipitation, MM = Missing Value Source: NWS Daily Summary

Daily Weather History Graph

Daily Weather History Graph

Search for Another Location

Airport or City:

Trip Planner

Search our weather history database for the weather conditions in past years. The results will help you decide how hot, cold, wet, or windy it might be!

Date:

Astronomy

Jan. 02, 2014 Rise Set
Actual Time 6:47 AM CST 4:30 PM CST
Civil Twilight 6:18 AM CST 4:59 PM CST
Nautical Twilight 5:46 AM CST 5:31 PM CST
Astronomical Twilight 5:15 AM CST 6:03 PM CST
Moon 7:30 AM CST (1/2) 6:23 PM CST (1/2)
Length of Visible Light 10h 40m
Length of Day
9h 43m
Waxing Crescent, 3% of the Moon is Illuminated
Jan 2
Waxing Crescent
Jan 7
First Quarter
Jan 15
Full
Jan 23
Last Quarter
Jan 30
New

Hourly Weather History & Observations

Time (CST) Temp. Windchill Dew Point Humidity Pressure Visibility Wind Dir Wind Speed Gust Speed Precip Events Conditions
12:15 AM 28.2 °F 24.4 °F 25.2 °F 88% 30.04 in 10.0 mi East 3.5 mph - N/A   Clear
12:35 AM 30.0 °F 25.2 °F 26.2 °F 86% 30.02 in 10.0 mi East 4.6 mph - N/A   Scattered Clouds
12:55 AM 33.3 °F - 26.2 °F 75% 30.03 in 10.0 mi Calm Calm - N/A   Mostly Cloudy
1:15 AM 32.9 °F 28.5 °F 27.0 °F 79% 30.03 in 10.0 mi ESE 4.6 mph - N/A   Overcast
1:35 AM 36.7 °F 32.0 °F 27.7 °F 70% 30.02 in 10.0 mi SSE 5.8 mph - N/A   Overcast
1:55 AM 38.7 °F 33.6 °F 27.7 °F 65% 30.01 in 10.0 mi SE 6.9 mph - N/A   Overcast
2:15 AM 38.8 °F 33.2 °F 27.7 °F 64% 30.00 in 10.0 mi SSE 8.1 mph - N/A   Overcast
2:35 AM 39.2 °F 34.2 °F 28.6 °F 66% 29.98 in 10.0 mi SSE 6.9 mph - N/A   Overcast
2:55 AM 37.2 °F 31.9 °F 30.6 °F 77% 29.97 in 10.0 mi SSE 6.9 mph - N/A Rain Rain
3:15 AM 37.2 °F 34.7 °F 30.9 °F 78% 29.99 in 7.0 mi SSE 3.5 mph - N/A Rain Rain
3:35 AM 35.6 °F - 32.4 °F 88% 29.97 in 5.0 mi Calm Calm - N/A Rain Light Rain
3:55 AM 34.9 °F - 33.1 °F 93% 29.96 in 7.0 mi Calm Calm - N/A Rain Rain
4:15 AM 34.9 °F - 34.2 °F 97% 29.95 in 7.0 mi Calm Calm - N/A Rain Light Rain
4:35 AM 34.7 °F - 34.2 °F 98% 29.94 in 4.0 mi Calm Calm - N/A Rain Light Rain
4:55 AM 34.7 °F - 34.5 °F 99% 29.93 in 5.0 mi Calm Calm - 0.01 in Rain Rain
5:15 AM 34.7 °F - 34.7 °F 100% 29.92 in 5.0 mi Calm Calm - N/A Rain Rain
5:35 AM 34.9 °F - 34.7 °F 99% 29.92 in 5.0 mi Calm Calm - N/A   Drizzle
5:55 AM 34.9 °F - 34.9 °F 100% 29.91 in 4.0 mi Calm Calm - N/A   Drizzle
6:15 AM 35.1 °F - 35.1 °F 100% 29.90 in 2.5 mi Calm Calm - N/A Rain Rain
6:35 AM 35.1 °F - 35.1 °F 100% 29.90 in 3.0 mi Calm Calm - N/A   Drizzle
6:55 AM 35.4 °F - 35.4 °F 100% 29.89 in 1.2 mi Calm Calm - 0.02 in Rain Rain
7:15 AM 35.6 °F - 35.6 °F 100% 29.87 in 1.0 mi Calm Calm - 0.03 in Rain Light Rain
7:35 AM 36.9 °F 30.7 °F 36.3 °F 98% 29.87 in 4.0 mi SSE 8.1 mph - 0.03 in Rain Light Rain
7:55 AM 37.0 °F 31.6 °F 35.6 °F 95% 29.87 in 3.0 mi SSE 6.9 mph 16.1 mph 0.05 in Rain Light Rain
8:15 AM 37.0 °F - 35.8 °F 95% 29.86 in 7.0 mi Calm Calm - N/A Rain Light Rain
8:35 AM 37.8 °F 33.3 °F 36.0 °F 93% 29.86 in 7.0 mi SE 5.8 mph - N/A Rain Light Rain
8:55 AM 36.5 °F - 35.2 °F 95% 29.84 in 7.0 mi Calm Calm - 0.01 in Rain Rain
9:15 AM 37.8 °F 31.8 °F 35.8 °F 93% 29.85 in 10.0 mi SSE 8.1 mph - N/A   Overcast
9:35 AM 37.9 °F 32.7 °F 36.5 °F 95% 29.85 in 5.0 mi South 6.9 mph - N/A Rain Light Rain
9:55 AM 38.1 °F 33.7 °F 36.5 °F 94% 29.83 in 5.0 mi SE 5.8 mph - 0.01 in   Drizzle
10:15 AM 37.2 °F - 36.1 °F 96% 29.81 in 7.0 mi Calm Calm - N/A   Drizzle
10:35 AM 37.6 °F 35.1 °F 36.5 °F 96% 29.80 in 10.0 mi ENE 3.5 mph - N/A   Overcast
10:55 AM 38.5 °F 35.0 °F 36.7 °F 93% 29.78 in 10.0 mi South 4.6 mph - N/A   Overcast
11:15 AM 38.3 °F 34.8 °F 36.5 °F 93% 29.77 in 10.0 mi SSE 4.6 mph - N/A Rain Light Rain
11:35 AM 37.9 °F - 37.0 °F 97% 29.77 in 2.0 mi Calm Calm - 0.02 in Rain Rain
11:55 AM 38.7 °F - 37.9 °F 97% 29.76 in 7.0 mi Calm Calm - 0.03 in Rain Light Rain
12:15 PM 38.8 °F - 38.3 °F 98% 29.76 in 7.0 mi Calm Calm - N/A   Drizzle
12:35 PM 39.2 °F 37.0 °F 38.7 °F 98% 29.76 in 5.0 mi NE 3.5 mph - N/A   Light Drizzle
12:55 PM 41.0 °F - 37.9 °F 89% 29.77 in 7.0 mi Calm Calm - N/A   Drizzle
1:15 PM 40.5 °F 36.5 °F 36.9 °F 87% 29.77 in 7.0 mi NW 5.8 mph - N/A   Drizzle
1:35 PM 39.7 °F 32.3 °F 35.1 °F 83% 29.78 in 10.0 mi NW 12.7 mph 19.6 mph N/A   Drizzle
1:55 PM 39.2 °F 32.5 °F 34.5 °F 83% 29.78 in 10.0 mi NW 10.4 mph 18.4 mph N/A   Light Drizzle
2:15 PM 38.7 °F 32.4 °F 34.0 °F 83% 29.80 in 10.0 mi WNW 9.2 mph - N/A Rain Light Rain
2:35 PM 37.2 °F 28.7 °F 32.0 °F 81% 29.82 in 10.0 mi NW 13.8 mph 23.0 mph N/A   Light Drizzle
2:55 PM 36.5 °F 27.8 °F 31.1 °F 81% 29.82 in 10.0 mi NW 13.8 mph 20.7 mph N/A   Overcast
3:15 PM 34.7 °F 27.5 °F 30.2 °F 84% 29.84 in 7.0 mi NW 9.2 mph 18.4 mph N/A Snow Light Snow
3:35 PM 33.8 °F 27.7 °F 29.3 °F 84% 29.86 in 7.0 mi NNW 6.9 mph 19.6 mph N/A Snow Light Snow
3:55 PM 32.9 °F 23.7 °F 29.1 °F 86% 29.87 in 10.0 mi NW 12.7 mph 17.3 mph N/A   Overcast
4:15 PM 31.8 °F 21.0 °F 27.9 °F 85% 29.88 in 10.0 mi NW 16.1 mph 25.3 mph N/A   Overcast
4:35 PM 30.2 °F 17.4 °F 26.4 °F 86% 29.91 in 7.0 mi NW 20.7 mph 28.8 mph N/A   Overcast
4:55 PM 29.3 °F 19.1 °F 26.1 °F 88% 29.92 in 4.0 mi NW 12.7 mph 18.4 mph N/A Snow Light Snow
5:15 PM 27.9 °F 15.9 °F 23.2 °F 83% 29.94 in 3.0 mi NW 16.1 mph 27.6 mph N/A Snow Light Snow
5:35 PM 26.2 °F 14.7 °F 20.7 °F 79% 29.97 in 4.0 mi NW 13.8 mph 23.0 mph N/A Snow Light Snow
5:55 PM 25.0 °F 13.6 °F 19.9 °F 81% 29.98 in 2.5 mi NW 12.7 mph 19.6 mph N/A Snow Light Snow
6:15 PM 24.4 °F 11.5 °F 17.8 °F 76% 30.00 in 3.0 mi NW 16.1 mph 25.3 mph N/A Snow Light Snow
6:35 PM 23.4 °F 12.2 °F 16.9 °F 76% 30.02 in 3.0 mi NW 11.5 mph 20.7 mph N/A Snow Light Snow
6:55 PM 23.0 °F 11.1 °F 16.7 °F 77% 30.03 in 3.0 mi NW 12.7 mph 21.9 mph N/A Snow Light Snow
7:15 PM 23.0 °F 11.1 °F 16.3 °F 76% 30.04 in 4.0 mi NW 12.7 mph 20.7 mph N/A Snow Light Snow
7:35 PM 22.8 °F 12.2 °F 16.5 °F 77% 30.05 in 3.0 mi NW 10.4 mph 21.9 mph N/A Snow Light Snow
7:55 PM 22.5 °F 8.9 °F 16.2 °F 77% 30.06 in 2.5 mi NW 16.1 mph 26.5 mph N/A Snow Light Snow
8:15 PM 21.7 °F 7.1 °F 15.3 °F 76% 30.07 in 3.0 mi NNW 18.4 mph 23.0 mph N/A Snow Light Snow
8:35 PM 20.1 °F 7.5 °F 16.5 °F 86% 30.09 in 0.5 mi NNW 12.7 mph 26.5 mph N/A Snow Snow
8:55 PM 19.8 °F 6.5 °F 13.8 °F 78% 30.10 in 2.5 mi North 13.8 mph 19.6 mph N/A Snow Light Snow
9:15 PM 19.4 °F 5.0 °F 12.7 °F 75% 30.11 in 2.5 mi WNW 16.1 mph 23.0 mph N/A Snow Light Snow
9:35 PM 19.0 °F 9.0 °F 11.5 °F 72% 30.12 in 4.0 mi NW 8.1 mph - N/A Snow Light Snow
9:55 PM 18.9 °F 9.8 °F 11.1 °F 72% 30.12 in 4.0 mi NNW 6.9 mph 20.7 mph N/A Snow Light Snow
10:15 PM 18.5 °F 6.1 °F 11.3 °F 73% 30.14 in 4.0 mi NW 11.5 mph 17.3 mph N/A Snow Light Snow
10:35 PM 18.3 °F 4.1 °F 10.0 °F 70% 30.15 in 4.0 mi NW 15.0 mph 23.0 mph N/A Snow Light Snow
10:55 PM 18.0 °F 3.1 °F 9.3 °F 69% 30.17 in 7.0 mi NNW 16.1 mph 25.3 mph N/A Snow Light Snow
11:15 PM 17.6 °F 6.4 °F 8.4 °F 67% 30.17 in 7.0 mi NW 9.2 mph 27.6 mph N/A   Overcast
11:35 PM 17.4 °F 1.9 °F 9.5 °F 71% 30.18 in 5.0 mi NW 17.3 mph 23.0 mph N/A Snow Light Snow
11:55 PM 17.2 °F 3.9 °F 10.0 °F 73% 30.21 in 3.0 mi NNW 12.7 mph 24.2 mph N/A Snow Light Snow